| time (UTC) | temp F | wind direction | speed knots | gust knots | rain 1hr in | rain 24hr in | rain mn in | humidity % | barometer mb |
| 20260502221501 | 51 | 104 | 0.0 | 0.0 | 0.00 | 0.47 | 0.47 | 91 | 1012.4 |
| 20260502220004 | 51 | 104 | 0.0 | 0.0 | 0.00 | 0.47 | 0.47 | 90 | 1012.4 |
| 20260502214502 | 52 | 104 | 0.0 | 0.9 | 0.00 | 0.47 | 0.47 | 90 | 1012.3 |
| 20260502213004 | 52 | 104 | 0.0 | 0.9 | 0.00 | 0.47 | 0.47 | 91 | 1012.3 |
| 20260502211501 | 53 | 46 | 0.0 | 0.0 | 0.00 | 0.47 | 0.47 | 91 | 1012.3 |
| 20260502210004 | 53 | 46 | 0.0 | 0.0 | 0.01 | 0.47 | 0.47 | 91 | 1012.3 |
| 20260502204502 | 54 | 46 | 0.0 | 0.0 | 0.02 | 0.47 | 0.47 | 90 | 1012.4 |
| 20260502203002 | 54 | 46 | 0.0 | 0.0 | 0.03 | 0.47 | 0.47 | 91 | 1012.6 |
| 20260502201501 | 54 | 46 | 0.0 | 0.0 | 0.05 | 0.47 | 0.47 | 90 | 1012.6 |
| 20260502200005 | 54 | 46 | 0.0 | 0.0 | 0.06 | 0.46 | 0.46 | 90 | 1012.6 |
| 20260502194502 | 54 | 46 | 0.0 | 0.0 | 0.06 | 0.46 | 0.46 | 90 | 1012.6 |
| 20260502193002 | 54 | 46 | 0.0 | 0.0 | 0.08 | 0.44 | 0.44 | 90 | 1012.6 |
| 20260502191501 | 54 | 46 | 0.0 | 1.7 | 0.09 | 0.43 | 0.43 | 90 | 1012.7 |
| 20260502190007 | 54 | 44 | 0.0 | 1.7 | 0.09 | 0.40 | 0.40 | 90 | 1012.8 |
| 20260502184501 | 54 | 19 | 0.9 | 1.7 | 0.13 | 0.39 | 0.39 | 89 | 1012.9 |
| 20260502183002 | 54 | 331 | 0.0 | 0.9 | 0.13 | 0.36 | 0.36 | 89 | 1013.1 |
| 20260502181502 | 54 | 283 | 0.0 | 0.9 | 0.13 | 0.34 | 0.34 | 89 | 1013.2 |
| 20260502163001 | 55 | 223 | 0.0 | 1.7 | 0.09 | 0.12 | 0.12 | 85 | 1014.2 |
| 20260502161501 | 56 | 208 | 0.0 | 0.9 | 0.09 | 0.09 | 0.09 | 83 | 1014.2 |
| 20260502151501 | 58 | 216 | 0.9 | 2.6 | 0.01 | 0.01 | 0.01 | 76 | 1014.7 |
| 20260502123001 | 63 | 173 | 4.3 | 7.0 | 0.00 | 0.00 | 0.00 | 64 | 1016.2 |
| 20260502121501 | 62 | 138 | 1.7 | 6.1 | 0.00 | 0.00 | 0.00 | 67 | 1016.4 |
| 20260502114501 | 63 | 161 | 2.6 | 9.6 | 0.00 | 0.00 | 0.00 | 67 | 1016.9 |
| 20260502113002 | 63 | 165 | 2.6 | 9.6 | 0.00 | 0.00 | 0.00 | 67 | 1017.0 |
| 20260502111501 | 62 | 164 | 3.5 | 8.7 | 0.00 | 0.00 | 0.00 | 69 | 1017.3 |
| 20260502110004 | 60 | 173 | 4.3 | 8.7 | 0.00 | 0.00 | 0.00 | 70 | 1017.5 |
| 20260502104501 | 61 | 148 | 0.9 | 7.8 | 0.00 | 0.01 | 0.00 | 68 | 1017.7 |
| 20260502103001 | 60 | 153 | 1.7 | 7.8 | 0.00 | 0.01 | 0.00 | 68 | 1017.9 |
| 20260502101502 | 60 | 171 | 4.3 | 9.6 | 0.00 | 0.01 | 0.00 | 70 | 1017.9 |
| 20260502071501 | 51 | 297 | 0.0 | 0.9 | 0.00 | 0.11 | 0.00 | 92 | 1018.9 |
| 20260502070003 | 50 | 297 | 0.0 | 0.9 | 0.00 | 0.11 | 0.00 | 92 | 1018.9 |
| 20260502064503 | 50 | 297 | 0.0 | 0.9 | 0.00 | 0.11 | 0.00 | 92 | 1018.9 |
| 20260502063002 | 49 | 297 | 0.0 | 0.9 | 0.00 | 0.11 | 0.00 | 91 | 1019.0 |
| 20260502061502 | 49 | 297 | 0.9 | 1.7 | 0.00 | 0.11 | 0.00 | 91 | 1019.0 |
| 20260502060002 | 48 | 289 | 0.9 | 2.6 | 0.00 | 0.11 | 0.00 | 91 | 1019.2 |
| 20260502054601 | 48 | 182 | 0.0 | 0.9 | 0.00 | 0.11 | 0.00 | 91 | 1019.2 |
| 20260502053105 | 47 | 182 | 0.0 | 0.0 | 0.00 | 0.11 | 0.00 | 91 | 1019.2 |
| 20260502051600 | 47 | 183 | 0.0 | 0.9 | 0.00 | 0.11 | 0.00 | 91 | 1019.3 |
| 20260502050100 | 46 | 5 | 0.0 | 0.0 | 0.00 | 0.11 | 0.00 | 91 | 1019.2 |
| 20260502050002 | 46 | 5 | 0.0 | 0.0 | 0.00 | 0.11 | 0.00 | 91 | 1019.2 |
| 20260502044600 | 46 | 5 | 0.0 | 0.0 | 0.00 | 0.11 | 0.00 | 90 | 1019.1 |
| 20260502043101 | 47 | 5 | 0.0 | 0.0 | 0.00 | 0.11 | 0.00 | 90 | 1019.0 |
| 20260502041600 | 47 | 5 | 0.0 | 0.0 | 0.00 | 0.11 | 0.00 | 90 | 1019.1 |
| 20260502040108 | 47 | 22 | 0.0 | 0.0 | 0.00 | 0.11 | 0.00 | 91 | 1019.1 |
| 20260502040004 | 47 | 22 | 0.0 | 0.0 | 0.00 | 0.11 | 0.00 | 91 | 1019.1 |
| 20260502034600 | 47 | 273 | 0.0 | 0.0 | 0.00 | 0.11 | 0.00 | 91 | 1019.2 |
| 20260502033101 | 47 | 273 | 0.0 | 0.0 | 0.00 | 0.11 | 0.00 | 90 | 1019.5 |
| 20260502031634 | 47 | 273 | 0.0 | 0.0 | 0.00 | 0.11 | 0.00 | 90 | 1019.7 |
| 20260502030003 | 47 | 273 | 0.0 | 0.0 | 0.00 | 0.11 | 0.00 | 90 | 1019.8 |
| 20260502024559 | 47 | 273 | 0.0 | 0.0 | 0.00 | 0.11 | 0.00 | 90 | 1019.8 |
| 20260502023059 | 47 | 273 | 0.0 | 0.0 | 0.00 | 0.11 | 0.00 | 90 | 1020.0 |
| 20260502021559 | 47 | 273 | 0.0 | 0.0 | 0.00 | 0.11 | 0.00 | 90 | 1020.1 |
| 20260502020113 | 48 | 273 | 0.0 | 0.0 | 0.00 | 0.11 | 0.00 | 90 | 1020.2 |
| 20260502020002 | 48 | 273 | 0.0 | 0.0 | 0.00 | 0.11 | 0.00 | 90 | 1020.2 |
| 20260502014600 | 48 | 273 | 0.0 | 0.0 | 0.00 | 0.11 | 0.00 | 90 | 1020.5 |
| 20260502013107 | 49 | 273 | 0.0 | 0.0 | 0.00 | 0.11 | 0.00 | 90 | 1020.7 |
| 20260502011610 | 49 | 325 | 0.0 | 0.0 | 0.00 | 0.11 | 0.00 | 90 | 1020.7 |
| 20260502010002 | 49 | 5 | 0.0 | 1.7 | 0.00 | 0.11 | 0.00 | 90 | 1020.9 |
| 20260502004606 | 49 | 311 | 0.0 | 0.0 | 0.00 | 0.11 | 0.00 | 90 | 1021.1 |
| 20260502003140 | 49 | 311 | 0.0 | 0.9 | 0.00 | 0.11 | 0.00 | 89 | 1021.2 |
| 20260502001634 | 49 | 284 | 0.9 | 2.6 | 0.00 | 0.11 | 0.00 | 89 | 1021.2 |
| 20260502000004 | 49 | 121 | 0.0 | 0.9 | 0.00 | 0.11 | 0.00 | 89 | 1021.3 |
| 20260501234503 | 49 | 121 | 0.0 | 1.7 | 0.00 | 0.11 | 0.00 | 89 | 1021.4 |
| 20260501233003 | 49 | 121 | 0.0 | 0.0 | 0.00 | 0.11 | 0.00 | 89 | 1021.4 |
| 20260501231502 | 49 | 121 | 0.0 | 0.0 | 0.00 | 0.11 | 0.00 | 89 | 1021.5 |
| 20260501230009 | 49 | 121 | 0.0 | 0.0 | 0.00 | 0.11 | 0.00 | 88 | 1021.7 |
| 20260501224503 | 48 | 121 | 0.0 | 0.0 | 0.00 | 0.11 | 0.11 | 88 | 1021.7 |
| 20260501223005 | 49 | 121 | 0.0 | 0.9 | 0.00 | 0.11 | 0.11 | 88 | 1021.8 |